Location: Les Coudrans
(46.1056°N, 1.1158°W)
Time: 18:33:59
(UTC+00:00)

Cosmos 1666 - Pass Details

Date: 03 March 2021
Orbit: 497 x 518 km, 82.5° (Epoch: 15 April)

Event Time Altitude Azimuth Distance (km) Brightness Sun altitude
Rises 18:29:01 0° 142° (SE) 2,575 5.9 -6.9°
Reaches altitude 10° 18:32:01 10° 115° (ESE) 1,700 4.8 -7.4°
Maximum altitude 18:33:50 13° 85° (E) 1,507 4.4 -7.7°
Drops below altitude 10° 18:35:40 10° 56° (NE) 1,710 4.8 -8.0°
Sets 18:38:42 0° 29° (NNE) 2,604 6.0 -8.6°
